When you browse on this site, cookies collect data to enhance your experience and personalize the content and advertising you see.
Visit our Privacy Policy to learn more. By continuing to use the site, you agree to this use of cookies and data.
  • în România
  • Lista ţărilor
  • Pe 7 zile
  • Temperatura apei
  • Meteo pe hartă
  • Widget-uri
  • user-avatar
    Intrare

    Meteo pe oră la Sosnowiec

    Astăzi, 23 Ianuarie, Joi

    Timp Temperatura Precipitaţii Vânt Presiune Umiditate
    00:00 -1°C° 0 mm 4 m/s 748 mmHg 92%
    01:00 0°C° 0 mm 3 m/s 748 mmHg 95%
    02:00 0°C° 0 mm 3 m/s 748 mmHg 94%
    03:00 0°C° 0 mm 3 m/s 748 mmHg 92%
    04:00 0°C° 0 mm 3 m/s 748 mmHg 91%
    05:00 -1°C° 0 mm 3 m/s 749 mmHg 90%
    06:00 -1°C° 0 mm 3 m/s 749 mmHg 88%
    07:00 -1°C° 0 mm 3 m/s 749 mmHg 87%
    08:00 -1°C° 0 mm 3 m/s 749 mmHg 86%
    09:00 0°C° 0 mm 3 m/s 749 mmHg 85%
    10:00 0°C° 0 mm 3 m/s 749 mmHg 84%
    11:00 0°C° 0 mm 3 m/s 749 mmHg 81%
    12:00 +2°C° 0 mm 2 m/s 749 mmHg 78%
    13:00 +2°C° 0 mm 2 m/s 749 mmHg 74%
    14:00 +2°C° 0 mm 2 m/s 748 mmHg 76%
    15:00 +1°C° 0 mm 2 m/s 748 mmHg 78%
    16:00 +2°C° 0 mm 1 m/s 747 mmHg 80%
    17:00 +1°C° 0 mm 1 m/s 747 mmHg 81%
    18:00 +1°C° 0 mm 1 m/s 747 mmHg 82%
    19:00 +1°C° 0 mm 1 m/s 747 mmHg 84%
    20:00 -2°C° 0 mm 2 m/s 747 mmHg 83%
    21:00 -2°C° 0 mm 2 m/s 746 mmHg 83%
    22:00 -2°C° 0 mm 2 m/s 746 mmHg 82%
    23:00 -2°C° 0 mm 2 m/s 746 mmHg 81%

    Mâine, 24 Ianuarie, Vineri

    Timp Temperatura Precipitaţii Vânt Presiune Umiditate
    00:00 -2°C° 0 mm 2 m/s 746 mmHg 80%
    01:00 -2°C° 0 mm 2 m/s 746 mmHg 79%
    02:00 -2°C° 0 mm 2 m/s 745 mmHg 77%
    03:00 -2°C° 0 mm 3 m/s 745 mmHg 75%
    04:00 -2°C° 0 mm 3 m/s 744 mmHg 73%
    05:00 -2°C° 0 mm 3 m/s 744 mmHg 72%
    06:00 -2°C° 0 mm 3 m/s 744 mmHg 70%
    07:00 -2°C° 0 mm 3 m/s 743 mmHg 69%
    08:00 -1°C° 0 mm 3 m/s 743 mmHg 66%
    09:00 -1°C° 0 mm 3 m/s 743 mmHg 62%
    10:00 -1°C° 0 mm 4 m/s 743 mmHg 59%
    11:00 0°C° 0 mm 4 m/s 743 mmHg 57%
    12:00 0°C° 0 mm 4 m/s 743 mmHg 54%
    13:00 +1°C° 0 mm 4 m/s 742 mmHg 52%
    14:00 0°C° 0 mm 4 m/s 742 mmHg 58%
    15:00 0°C° 0 mm 4 m/s 742 mmHg 63%
    16:00 -1°C° 0 mm 4 m/s 741 mmHg 68%
    17:00 -2°C° 0 mm 4 m/s 741 mmHg 72%
    18:00 -2°C° 0 mm 4 m/s 741 mmHg 75%
    19:00 -3°C° 0 mm 4 m/s 741 mmHg 79%
    20:00 -3°C° 0 mm 4 m/s 741 mmHg 79%
    21:00 -3°C° 0 mm 4 m/s 741 mmHg 79%
    22:00 -2°C° 0 mm 3 m/s 741 mmHg 79%
    23:00 -2°C° 0 mm 3 m/s 741 mmHg 79%

    Poimâine, 25 Ianuarie, Sâmbătă

    Timp Temperatura Precipitaţii Vânt Presiune Umiditate
    00:00 -2°C° 0 mm 3 m/s 741 mmHg 79%
    01:00 -2°C° 0 mm 3 m/s 741 mmHg 80%
    02:00 -2°C° 0 mm 3 m/s 741 mmHg 79%
    03:00 -2°C° 0 mm 2 m/s 740 mmHg 79%
    04:00 -2°C° 0 mm 2 m/s 740 mmHg 79%
    05:00 -2°C° 0 mm 2 m/s 740 mmHg 79%
    06:00 -2°C° 0 mm 2 m/s 740 mmHg 78%
    07:00 0°C° 0 mm 1 m/s 740 mmHg 78%
    08:00 -2°C° 0 mm 2 m/s 740 mmHg 74%
    09:00 -1°C° 0 mm 2 m/s 741 mmHg 70%
    10:00 +1°C° 0 mm 2 m/s 741 mmHg 66%
    11:00 +2°C° 0 mm 2 m/s 740 mmHg 64%
    12:00 +2°C° 0 mm 2 m/s 740 mmHg 61%
    13:00 +3°C° 0 mm 2 m/s 740 mmHg 59%
    14:00 +2°C° 0 mm 2 m/s 740 mmHg 63%
    15:00 +3°C° 0 mm 1 m/s 739 mmHg 67%
    16:00 +2°C° 0 mm 1 m/s 739 mmHg 71%
    17:00 +1°C° 0 mm 1 m/s 740 mmHg 73%
    18:00 +1°C° 0 mm 1 m/s 740 mmHg 75%
    19:00 +1°C° 0 mm 1 m/s 740 mmHg 78%
    20:00 0°C° 0 mm 1 m/s 740 mmHg 78%
    21:00 0°C° 0 mm 1 m/s 740 mmHg 78%
    22:00 0°C° 0 mm 1 m/s 740 mmHg 79%
    23:00 0°C° 0 mm 1 m/s 740 mmHg 79%

    26 Ianuarie, Duminică

    Timp Temperatura Precipitaţii Vânt Presiune Umiditate
    00:00 0°C° 0 mm 1 m/s 740 mmHg 80%
    01:00 0°C° 0 mm 1 m/s 740 mmHg 80%
    02:00 0°C° 0 mm 1 m/s 740 mmHg 79%
    03:00 0°C° 0 mm 1 m/s 740 mmHg 79%
    04:00 0°C° 0 mm 1 m/s 740 mmHg 78%
    05:00 0°C° 0 mm 1 m/s 740 mmHg 77%
    06:00 0°C° 0 mm 1 m/s 740 mmHg 77%
    07:00 0°C° 0 mm 1 m/s 740 mmHg 76%
    08:00 +1°C° 0 mm 1 m/s 740 mmHg 73%
    09:00 +1°C° 0 mm 1 m/s 740 mmHg 70%
    10:00 +2°C° 0 mm 1 m/s 740 mmHg 67%
    11:00 +2°C° 0 mm 1 m/s 740 mmHg 65%
    12:00 +3°C° 0 mm 1 m/s 739 mmHg 64%
    13:00 +3°C° 0 mm 1 m/s 739 mmHg 62%
    14:00 +3°C° 0 mm 1 m/s 739 mmHg 66%
    15:00 +2°C° 0 mm 1 m/s 739 mmHg 69%
    16:00 +2°C° 0 mm 1 m/s 739 mmHg 72%
    17:00 +1°C° 0 mm 2 m/s 739 mmHg 75%
    18:00 +1°C° 0 mm 2 m/s 739 mmHg 77%
    19:00 +1°C° 0 mm 2 m/s 739 mmHg 80%
    20:00 0°C° 0 mm 3 m/s 739 mmHg 82%
    21:00 -1°C° 0 mm 3 m/s 739 mmHg 84%
    22:00 -1°C° 0 mm 3 m/s 739 mmHg 86%
    23:00 0°C° 0 mm 3 m/s 739 mmHg 88%

    27 Ianuarie, Luni

    Timp Temperatura Precipitaţii Vânt Presiune Umiditate
    00:00 0°C° 0 mm 3 m/s 738 mmHg 90%
    01:00 0°C° 0 mm 4 m/s 738 mmHg 92%
    02:00 +1°C° 0.1 mm 3 m/s 738 mmHg 93%
    03:00 +1°C° 0.1 mm 3 m/s 738 mmHg 94%
    04:00 +1°C° 0.1 mm 3 m/s 738 mmHg 95%
    05:00 +1°C° 0.2 mm 3 m/s 738 mmHg 94%
    06:00 0°C° 0.2 mm 4 m/s 738 mmHg 93%
    07:00 +1°C° 0.2 mm 4 m/s 738 mmHg 93%
    08:00 +1°C° 0 mm 4 m/s 738 mmHg 91%
    09:00 +1°C° 0 mm 4 m/s 738 mmHg 89%
    10:00 +2°C° 0 mm 5 m/s 738 mmHg 87%
    11:00 +2°C° 0 mm 5 m/s 738 mmHg 84%
    12:00 +3°C° 0 mm 5 m/s 737 mmHg 82%
    13:00 +3°C° 0 mm 6 m/s 737 mmHg 79%
    14:00 +3°C° 0 mm 5 m/s 737 mmHg 81%
    15:00 +3°C° 0 mm 5 m/s 737 mmHg 83%
    16:00 +2°C° 0 mm 5 m/s 737 mmHg 85%
    17:00 +2°C° 0 mm 5 m/s 737 mmHg 86%
    18:00 +3°C° 0 mm 4 m/s 738 mmHg 86%
    19:00 +3°C° 0 mm 4 m/s 738 mmHg 87%
    20:00 +3°C° 0 mm 4 m/s 738 mmHg 88%
    21:00 +1°C° 0 mm 4 m/s 737 mmHg 90%
    22:00 +1°C° 0 mm 4 m/s 737 mmHg 91%
    23:00 +1°C° 0 mm 4 m/s 737 mmHg 90%

    28 Ianuarie, Marţi

    Timp Temperatura Precipitaţii Vânt Presiune Umiditate
    00:00 +1°C° 0 mm 4 m/s 737 mmHg 90%
    01:00 +1°C° 0 mm 4 m/s 736 mmHg 89%
    02:00 +1°C° 0 mm 4 m/s 735 mmHg 89%
    03:00 +1°C° 0 mm 4 m/s 735 mmHg 88%
    04:00 +1°C° 0 mm 4 m/s 734 mmHg 87%
    05:00 +3°C° 0 mm 4 m/s 733 mmHg 84%
    06:00 +3°C° 0 mm 4 m/s 732 mmHg 82%
    07:00 +3°C° 0 mm 4 m/s 732 mmHg 80%
    08:00 +3°C° 0 mm 5 m/s 732 mmHg 75%
    09:00 +4°C° 0 mm 6 m/s 732 mmHg 70%
    10:00 +5°C° 0 mm 6 m/s 732 mmHg 66%
    11:00 +5°C° 0 mm 7 m/s 731 mmHg 65%
    12:00 +6°C° 0 mm 7 m/s 731 mmHg 63%
    13:00 +6°C° 0 mm 8 m/s 731 mmHg 62%
    14:00 +6°C° 0 mm 7 m/s 731 mmHg 65%
    15:00 +5°C° 0 mm 7 m/s 732 mmHg 68%
    16:00 +5°C° 0 mm 7 m/s 732 mmHg 71%
    17:00 +5°C° 0 mm 7 m/s 733 mmHg 73%
    18:00 +4°C° 0 mm 6 m/s 733 mmHg 76%
    19:00 +4°C° 0 mm 6 m/s 734 mmHg 79%
    20:00 +4°C° 0 mm 6 m/s 734 mmHg 79%
    21:00 +3°C° 0 mm 5 m/s 734 mmHg 79%
    22:00 +3°C° 0 mm 5 m/s 734 mmHg 79%
    23:00 +2°C° 0 mm 5 m/s 734 mmHg 77%
    Arată mai mult